Weather History for KAND - November, 2013

Change the Weather History Date:

Friday, November 1, 2013

  Actual Average Record
Temperature  
Mean Temperature 64 °F -  
Max Temperature 70 °F 70 °F 86 °F (1950)
Min Temperature 57 °F 49 °F 28 °F (1954)
Degree Days  
Heating Degree Days 2    
Growing Degree Days 14 (Base 50)    
Moisture  
Dew Point 60 °F    
Average Humidity 90    
Maximum Humidity 100    
Minimum Humidity 70    
Precipitation  
Precipitation 0.21 in - - ()
Sea Level Pressure  
Sea Level Pressure 29.77 in    
Wind  
Wind Speed 10 mph (SSW)    
Max Wind Speed 18 mph    
Max Gust Speed 25 mph    
Visibility 8 miles    
Events Fog , Rain    
Averages and records for this station are not official NWS values.
T = Trace of Precipitation, MM = Missing Value Source: NWS Daily Summary

Daily Weather History Graph

Daily Weather History Graph

Search for Another Location

Airport or City:

Trip Planner

Search our weather history database for the weather conditions in past years. The results will help you decide how hot, cold, wet, or windy it might be!

Date:

Astronomy

Nov. 01, 2013 Rise Set
Actual Time 7:51 AM EDT 6:37 PM EDT
Civil Twilight 7:25 AM EDT 7:03 PM EDT
Nautical Twilight 6:55 AM EDT 7:32 PM EDT
Astronomical Twilight 6:26 AM EDT 8:02 PM EDT
Moon 5:46 AM EDT (11/1) 5:25 PM EDT (11/1)
Length of Visible Light 11h 37m
Length of Day
10h 45m
Waning Crescent, 4% of the Moon is Illuminated
Nov 1
Waning Crescent
Nov 3
New
Nov 10
First Quarter
Nov 17
Full
Nov 25
Last Quarter

Hourly Weather History & Observations

Time (EDT) Temp. Dew Point Humidity Pressure Visibility Wind Dir Wind Speed Gust Speed Precip Events Conditions
12:56 AM 70.0 °F 60.1 °F 71% 29.87 in 10.0 mi SSW 13.8 mph 20.7 mph N/A   Mostly Cloudy
1:56 AM 69.1 °F 59.0 °F 70% 29.81 in 10.0 mi South 13.8 mph 23.0 mph N/A   Scattered Clouds
2:51 AM 68.0 °F 59.0 °F 73% 29.84 in 10.0 mi SW 10.4 mph - 0.00 in   Mostly Cloudy
2:56 AM 68.0 °F 57.9 °F 70% 29.81 in 10.0 mi SW 11.5 mph - 0.00 in   Mostly Cloudy
3:56 AM 66.9 °F 57.9 °F 73% 29.79 in 10.0 mi SSW 9.2 mph - N/A   Overcast
4:56 AM 66.0 °F 59.0 °F 78% 29.78 in 10.0 mi SSW 9.2 mph - N/A   Overcast
5:23 AM 66.2 °F 60.8 °F 83% 29.79 in 10.0 mi SSW 10.4 mph - N/A   Overcast
5:56 AM 66.0 °F 60.1 °F 81% 29.76 in 10.0 mi SSW 10.4 mph - N/A   Overcast
6:56 AM 66.9 °F 62.1 °F 84% 29.77 in 10.0 mi South 11.5 mph - N/A   Overcast
7:56 AM 66.9 °F 63.0 °F 87% 29.77 in 10.0 mi SSW 13.8 mph - N/A   Overcast
8:08 AM 66.2 °F 64.4 °F 94% 29.81 in 7.0 mi West 16.1 mph 25.3 mph 0.01 in Rain Light Rain
8:14 AM 66.2 °F 64.4 °F 94% 29.81 in 6.0 mi SW 18.4 mph - 0.01 in Rain Light Rain
8:56 AM 66.0 °F 63.0 °F 90% 29.81 in 10.0 mi WSW 11.5 mph - 0.03 in Rain Light Rain
9:56 AM 64.0 °F 62.1 °F 93% 29.83 in 8.0 mi WSW 9.2 mph - 0.01 in Rain Light Rain
10:56 AM 63.0 °F 63.0 °F 100% 29.82 in 4.0 mi SSW 9.2 mph - 0.11 in Rain Rain
11:23 AM 64.4 °F 62.6 °F 94% 29.82 in 10.0 mi SSW 8.1 mph - 0.02 in   Overcast
11:42 AM 64.4 °F 62.6 °F 94% 29.81 in 10.0 mi SW 6.9 mph - 0.02 in   Overcast
11:56 AM 64.0 °F 62.1 °F 93% 29.80 in 10.0 mi SW 6.9 mph - 0.02 in   Overcast
12:04 PM 64.4 °F 62.6 °F 94% 29.82 in 10.0 mi SSW 8.1 mph - 0.01 in Rain Light Rain
12:56 PM 64.0 °F 63.0 °F 96% 29.77 in 10.0 mi SSW 6.9 mph - 0.04 in   Overcast
1:24 PM 64.4 °F 62.6 °F 94% 29.79 in 10.0 mi SSW 10.4 mph - N/A   Overcast
1:56 PM 64.9 °F 63.0 °F 93% 29.75 in 10.0 mi SSW 11.5 mph - N/A   Overcast
2:23 PM 66.2 °F 62.6 °F 88% 29.75 in 10.0 mi SSW 10.4 mph - N/A   Overcast
2:56 PM 68.0 °F 61.0 °F 78% 29.71 in 10.0 mi SSW 8.1 mph - N/A   Mostly Cloudy
3:14 PM 68.0 °F 62.6 °F 83% 29.72 in 10.0 mi SSW 9.2 mph - N/A   Scattered Clouds
3:56 PM 68.0 °F 61.0 °F 78% 29.70 in 10.0 mi South 9.2 mph - N/A   Partly Cloudy
4:56 PM 66.0 °F 61.0 °F 84% 29.71 in 10.0 mi SSE 12.7 mph - N/A   Mostly Cloudy
5:42 PM 64.4 °F 60.8 °F 88% 29.72 in 10.0 mi South 11.5 mph - N/A   Scattered Clouds
5:56 PM 64.9 °F 61.0 °F 87% 29.70 in 10.0 mi South 9.2 mph - N/A   Clear
6:56 PM 62.1 °F 60.1 °F 93% 29.72 in 10.0 mi SSW 8.1 mph - N/A   Clear
7:31 PM 62.6 °F 60.8 °F 94% 29.74 in 10.0 mi South 6.9 mph - N/A   Mostly Cloudy
7:52 PM 62.6 °F 60.8 °F 94% 29.75 in 10.0 mi SSW 10.4 mph - N/A   Overcast
7:56 PM 63.0 °F 61.0 °F 93% 29.73 in 10.0 mi SSW 10.4 mph - N/A   Overcast
8:56 PM 61.0 °F 60.1 °F 97% 29.75 in 10.0 mi SSW 6.9 mph - N/A   Mostly Cloudy
9:43 PM 60.8 °F 60.8 °F 100% 29.77 in 8.0 mi SW 5.8 mph - N/A   Partly Cloudy
9:56 PM 60.1 °F 59.0 °F 96% 29.75 in 7.0 mi SW 3.5 mph - N/A   Clear
10:22 PM 57.2 °F 57.2 °F 100% 29.78 in 0.8 mi SSW 5.8 mph - N/A   Mist
10:28 PM 57.2 °F 57.2 °F 100% 29.78 in 0.2 mi SSW 5.8 mph - N/A Fog Fog
10:39 PM 57.2 °F 57.2 °F 100% 29.78 in 0.5 mi SSW 4.6 mph - N/A Fog Fog
10:46 PM 57.2 °F 57.2 °F 100% 29.78 in 1.0 mi SSW 4.6 mph - N/A   Mist
10:51 PM 57.2 °F 57.2 °F 100% 29.78 in 2.0 mi SSW 5.8 mph - N/A   Partly Cloudy
10:56 PM 57.9 °F 57.0 °F 97% 29.77 in 2.5 mi SSW 5.8 mph - N/A   Clear
11:29 PM 57.2 °F 57.2 °F 100% 29.78 in 1.0 mi SW 3.5 mph - N/A   Clear
11:40 PM 57.2 °F 57.2 °F 100% 29.78 in 0.5 mi Calm Calm - N/A Fog Fog
11:47 PM 57.2 °F 57.2 °F 100% 29.78 in 0.8 mi Calm Calm - N/A   Clear
11:54 PM 57.2 °F 57.2 °F 100% 29.78 in 1.0 mi Calm Calm - N/A   Clear
11:56 PM 57.0 °F 57.0 °F 100% 29.76 in 0.8 mi Calm Calm - N/A   Mist